Regional Weather Roundup
Issued by NWS

Home | Current Version | Previous Version | Text Only | Print | Product List | Glossary On
Versions: 1 2 3 4 5 6 7 8 9 10 11 12 13 14 15 16 17 18 19 20 21 22 23 24 25 26 27 28 29 30 31 32 33 34 35 36 37 38 39 40 41 42 43 44 45 46 47 48 49 50
419
ASUS44 KLIX 300905
RWRLA
LOUISIANA WEATHER ROUNDUP
NATIONAL WEATHER SERVICE NEW ORLEANS LA
300 AM CST FRI JAN 30 2015

NOTE: "FAIR" INDICATES FEW OR NO CLOUDS BELOW 12,000 FEET WITH NO
      SIGNIFICANT WEATHER AND/OR OBSTRUCTIONS TO VISIBILITY.
      SKY/WX - SKY CONDITION AND SIGNIFICANT WEATHER.
      TMP - AIR TEMPERATURE.    DP   - DEWPOINT TEMPERATURE.
      RH  - RELATIVE HUMIDITY.  PRES - PRESSURE.
      HX  - HEAT INDEX.         WCI  - WIND CHILL INDEX.

*  THESE STATIONS ARE NOT NWS OR FAA STATIONS AND ARE NOT UNDER
   NWS QUALITY CONTROL.

LAZ040-048-061>063-065-066-069-301000-
SOUTHEAST LOUISIANA

CITY           SKY/WX    TMP DP  RH WIND       PRES   REMARKS
N.O. AUDUBON   NOT AVBL
N.O. INTL ARPT PTCLDY    57  46  66 N14       30.27R
N.O. LAKEFRONT CLEAR     58  48  69 N17       30.28R
N.O. DOWNTOWN* NOT AVBL
SLIDELL        CLEAR     56  42  59 N13       30.27R
BATON ROUGE    CLEAR     52  41  66 N9        30.31R
BOOTHVILLE     PTCLDY    59  58  96 NW9       30.24S
BELLE CHASSE   PTCLDY    59  49  69 N9        30.26R
BOGALUSA*        N/A     53  40  61 N15G21    30.31S
GALLIANO*      MOSUNNY   56  55  96 NW9       30.25S
NEW ROADS*     FAIR      49  39  68 N13G18    30.34R
GONZALES*      FAIR      56  44  62 N8G16     30.29R
HAMMOND*       CLEAR     54  41  62 N12G20    30.32R
HOUMA*         PTCLDY    56  56  99 N9        30.25S
PORT FOURCHON* SUNNY     61  59  94 NW8       30.27S

$$

LAZ041-044-053-054-301000-
SOUTHWEST LOUISIANA

CITY           SKY/WX    TMP DP  RH WIND       PRES   REMARKS
LAKE CHARLES   PTCLDY    57  42  57 N15G23    30.31R
LAFAYETTE      PTCLDY    53  42  66 N17G25    30.31R
PATTERSON      PTCLDY    57  52  82 N12       30.28R
SALT POINT       N/A     57  53  86 N7        30.25S
NEW IBERIA     PTCLDY    54  44  69 N15       30.30R
CHENAULT AIRPK CLEAR     56  42  61 N9        30.32R

$$

LAZ027-028-301000-
CENTRAL LOUISIANA

CITY           SKY/WX    TMP DP  RH WIND       PRES   REMARKS
FORT POLK      CLEAR     51  41  67 NE10      30.35R
ALEXANDRIA INT PTCLDY    47  37  68 NE12      30.38R
ALEXANDRIA     PTCLDY    46  35  65 NE12G21   30.39R

$$

LAZ001-002-301000-
NORTHWEST LOUISIANA

CITY           SKY/WX    TMP DP  RH WIND       PRES   REMARKS
SHREVEPORT     CLOUDY    45  34  65 NE13      30.44R
BARKSDALE AFB  PTCLDY    44  30  59 NE9       30.45R
DTN SHREVEPORT PTCLDY    44  31  60 NE6       30.45R

$$

LAZ014-016-301000-
NORTHEAST LOUISIANA

CITY           SKY/WX    TMP DP  RH WIND       PRES   REMARKS
MONROE         CLEAR     42  33  70 N7        30.44F
TALLULAH       CLEAR     40  33  76 N10       30.41S WCI  33

$$




USA.gov is the U.S. government's official web portal to all federal, state and local government web resources and services.